EW3235 Weather Reports


time (UTC)temp
C
wind
direction
speed
KPH
gust
KPH
rain 1hr
cm
rain 24hr
cm
rain mn
cm
humidity
%
barometer
mb
20260506103032 12 234 0.0 0.0 0.00 0.00 0.00 87 1019.2
20260506101532 12 0 0.0 0.0 0.00 0.00 0.00 87 1019.1
20260506100035 12 0 0.0 0.0 0.00 0.00 0.00 86 1018.9
20260506094534 12 0 0.0 1.6 0.00 0.00 0.00 86 1018.9
20260506093029 12 0 0.0 0.0 0.00 0.00 0.00 86 1018.8
20260506091532 12 0 0.0 1.6 0.00 0.00 0.00 86 1019.0
20260506090041 12 0 0.0 3.2 0.00 0.00 0.00 86 1019.0
20260506084530 12 0 0.0 1.6 0.00 0.05 0.00 86 1019.0
20260506083038 12 0 0.0 1.6 0.00 0.05 0.00 85 1019.1
20260506081530 12 0 0.0 0.0 0.00 0.05 0.00 85 1019.0
20260506073031 13 0 0.0 1.6 0.00 0.05 0.00 85 1018.8
20260506071532 13 232 0.0 0.0 0.00 0.05 0.00 85 1018.6
20260506061528 13 0 0.0 0.0 0.00 0.15 0.05 83 1018.2
20260506044534 13 0 0.0 0.0 0.00 0.15 0.05 80 1017.4
20260506043031 13 0 0.0 1.6 0.00 0.15 0.05 80 1017.2
20260506041528 14 0 0.0 1.6 0.00 0.15 0.05 79 1016.9
20260506040041 14 0 0.0 1.6 0.00 0.15 0.05 78 1016.5
20260506034528 15 0 0.0 3.2 0.00 0.15 0.05 77 1016.4
20260506033030 15 0 0.0 1.6 0.00 0.15 0.05 77 1016.2
20260506031532 15 0 0.0 0.0 0.00 0.15 0.05 77 1015.9
20260506030032 15 165 0.0 3.2 0.00 0.15 0.05 76 1015.8
20260506024536 16 0 0.0 4.8 0.00 0.18 0.05 75 1015.6
20260506023030 16 0 0.0 1.6 0.00 0.18 0.05 75 1015.5
20260506021548 16 0 0.0 1.6 0.00 0.18 0.05 74 1015.4
20260506020031 17 0 0.0 1.6 0.00 0.18 0.05 73 1015.2
20260506014529 17 0 0.0 4.8 0.00 0.36 0.05 73 1015.1
20260506013031 17 144 1.6 4.8 0.00 0.36 0.05 71 1015.1
20260506011530 17 0 0.0 3.2 0.00 0.36 0.05 71 1015.0
20260506010036 17 0 1.6 6.4 0.00 0.36 0.05 71 1014.9
20260506004529 17 184 1.6 6.4 0.00 0.38 0.05 72 1015.0
20260506003030 18 152 0.0 8.0 0.00 0.38 0.05 71 1014.9
20260506001531 18 240 0.0 9.7 0.00 0.38 0.05 71 1014.5
20260506000031 18 150 0.0 8.0 0.00 0.38 0.05 70 1014.6
20260505234547 19 177 3.2 6.4 0.00 0.41 0.05 68 1014.6
20260505233033 19 0 0.0 1.6 0.00 0.41 0.05 67 1014.5
20260505231531 20 0 0.0 4.8 0.00 0.41 0.05 68 1014.6
20260505230028 19 245 0.0 1.6 0.00 0.41 0.05 70 1014.6
20260505224532 18 0 0.0 3.2 0.00 0.58 0.05 71 1014.5
20260505223033 18 0 0.0 1.6 0.00 0.58 0.05 71 1014.7
20260505221528 18 333 0.0 1.6 0.00 0.58 0.05 70 1015.0
20260505220029 19 0 0.0 1.6 0.00 0.58 0.05 70 1015.2
20260505214541 18 0 0.0 3.2 0.00 0.69 0.05 71 1015.3
20260505213029 18 61 0.0 4.8 0.00 0.69 0.05 74 1015.4
20260505211540 18 236 0.0 3.2 0.00 0.69 0.05 70 1015.7
20260505210028 17 0 0.0 1.6 0.00 0.69 0.05 72 1015.7
20260505204533 17 0 0.0 1.6 0.00 0.69 0.05 74 1015.7
20260505203048 16 0 0.0 3.2 0.00 0.69 0.05 77 1015.7
20260505201529 16 0 0.0 6.4 0.00 0.69 0.05 76 1015.8
20260505200029 16 0 0.0 1.6 0.00 0.69 0.05 76 1015.8
20260505194530 16 0 0.0 1.6 0.00 0.69 0.05 78 1015.9
20260505193028 16 0 0.0 1.6 0.00 0.69 0.05 79 1015.8
20260505191530 16 0 0.0 1.6 0.00 0.69 0.05 81 1015.9
20260505190034 15 0 0.0 1.6 0.00 0.69 0.05 82 1015.7
20260505184542 15 0 0.0 3.2 0.00 0.69 0.05 81 1015.8
20260505183039 15 0 1.6 6.4 0.00 0.69 0.05 80 1015.7
20260505181529 15 49 0.0 3.2 0.00 0.69 0.05 80 1015.7
20260505180030 15 0 0.0 3.2 0.00 0.69 0.05 82 1015.6
20260505174532 15 0 0.0 1.6 0.00 0.69 0.05 82 1015.4
20260505173031 15 0 0.0 0.0 0.00 0.69 0.05 83 1015.3
20260505171529 15 0 0.0 1.6 0.00 0.69 0.05 82 1015.3
20260505170036 14 0 0.0 0.0 0.00 0.69 0.05 88 1015.3
20260505164533 13 0 0.0 0.0 0.00 0.69 0.05 91 1015.3
20260505163029 13 0 0.0 1.6 0.00 0.69 0.05 90 1015.2
20260505161531 13 0 0.0 1.6 0.00 0.69 0.05 92 1015.1
20260505153030 12 0 0.0 1.6 0.00 0.69 0.05 93 1015.0
20260505151538 12 0 0.0 0.0 0.00 0.69 0.05 93 1014.9
20260505124529 10 0 0.0 0.0 0.00 0.69 0.05 94 1014.1
20260505123030 10 0 0.0 0.0 0.00 0.69 0.05 94 1014.1
20260505121536 10 0 0.0 0.0 0.00 0.69 0.05 94 1014.1
20260505120030 10 0 0.0 0.0 0.00 0.69 0.05 94 1014.1
20260505114529 11 0 0.0 0.0 0.00 0.69 0.05 94 1014.2
20260505113040 11 0 0.0 1.6 0.00 0.69 0.05 93 1014.3
20260505111540 11 0 0.0 0.0 0.00 0.69 0.05 94 1014.2